W2DSX-2 Weather Reports


time (UTC)temp
C
wind
direction
speed
KPH
gust
KPH
rain 1hr
cm
rain 24hr
cm
rain mn
cm
humidity
%
barometer
mb
20260502194503 15 345 1.6 6.4 0.00 0.05 0.05 46 1010.1
20260502191505 15 329 3.2 9.7 0.00 0.05 0.05 47 1010.5
20260502190004 15 336 4.8 12.9 0.00 0.05 0.05 51 1010.6
20260502184502 15 33 3.2 11.3 0.00 0.05 0.05 52 1010.7
20260502181504 15 340 4.8 9.7 0.00 0.05 0.05 53 1010.9
20260502163002 13 17 3.2 8.0 0.00 0.05 0.05 63 1011.6
20260502161504 13 77 1.6 4.8 0.00 0.05 0.05 65 1011.5
20260502123002 11 34 1.6 4.8 0.00 0.05 0.05 79 1012.2
20260502121504 10 91 1.6 4.8 0.00 0.05 0.05 81 1012.2
20260502114502 10 357 1.6 4.8 0.00 0.05 0.05 86 1012.5
20260502113002 10 253 0.0 1.6 0.00 0.05 0.05 87 1012.5
20260502111504 10 239 0.0 0.0 0.05 0.05 0.05 86 1012.0
20260502110004 10 239 0.0 0.0 0.05 0.05 0.05 86 1011.5
20260502103001 10 255 0.0 1.6 0.05 0.05 0.05 82 1011.5
20260502091502 10 234 3.2 6.4 0.00 0.00 0.00 79 1011.8
20260502071503 10 236 3.2 8.0 0.00 0.00 0.00 75 1011.6
20260502070004 10 261 3.2 8.0 0.00 0.00 0.00 74 1011.8
20260502064504 10 250 4.8 8.0 0.00 0.00 0.00 74 1011.8
20260502061503 10 207 4.8 14.5 0.00 0.00 0.00 72 1011.9
20260502060004 10 234 3.2 6.4 0.00 0.00 0.00 71 1012.2
20260502053000 10 253 0.0 3.2 0.00 0.00 0.00 70 1011.9
20260502051502 11 209 3.2 8.0 0.00 0.00 0.00 70 1011.8
20260502050006 11 197 1.6 4.8 0.00 0.00 0.00 67 1011.8
20260502043003 11 245 1.6 6.4 0.00 0.00 0.00 65 1011.9
20260502041503 11 233 1.6 4.8 0.00 0.00 0.00 65 1012.1
20260502040009 11 256 1.6 4.8 0.00 0.00 0.00 67 1012.0
20260502034503 11 212 4.8 12.9 0.00 0.00 0.00 68 1012.1
20260502031503 11 223 4.8 12.9 0.00 0.00 0.00 71 1012.1
20260502023004 10 165 6.4 12.9 0.00 0.00 0.00 78 1012.4
20260502021504 10 195 6.4 14.5 0.00 0.00 0.00 78 1012.2
20260502020007 10 210 4.8 14.5 0.00 0.00 0.00 78 1012.4
20260502014502 10 214 6.4 14.5 0.00 0.00 0.00 78 1012.3
20260502010005 10 193 6.4 16.1 0.00 0.00 0.00 74 1011.9
20260502004504 11 214 6.4 16.1 0.00 0.00 0.00 72 1011.9
20260502003005 11 158 8.0 17.7 0.00 0.00 0.00 70 1011.9
20260502001503 11 192 6.4 16.1 0.00 0.00 0.00 71 1011.9
20260502000006 11 193 8.0 19.3 0.00 0.00 0.00 71 1011.6
20260501234502 11 193 6.4 14.5 0.00 0.00 0.00 72 1011.4
20260501233005 11 180 8.0 19.3 0.00 0.00 0.00 71 1011.3
20260501231503 11 174 8.0 16.1 0.00 0.00 0.00 70 1011.1
20260501230006 11 198 8.0 20.9 0.00 0.00 0.00 69 1011.0
20260501224502 11 112 6.4 16.1 0.00 0.00 0.00 69 1011.1
20260501221502 12 186 6.4 16.1 0.00 0.00 0.00 66 1011.3
20260501220007 12 209 9.7 24.1 0.00 0.00 0.00 66 1011.3
20260501213001 12 175 11.3 22.5 0.00 0.03 0.00 63 1011.1
20260501210005 12 158 8.0 19.3 0.00 0.03 0.00 61 1011.2
20260501204502 13 183 9.7 24.1 0.00 0.03 0.00 58 1011.1
20260501203004 13 257 12.9 25.7 0.00 0.03 0.00 57 1011.2
20260501201504 13 160 12.9 29.0 0.00 0.03 0.00 52 1011.1
20260501200005 14 227 11.3 24.1 0.00 0.03 0.00 50 1011.0